Location: Hurstbourne Priors
(51.2000°N, 1.3667°W)
Time: 17:27:55
(UTC+00:00)

Vanguard 3 - Pass Details

Date: 26 April 2021
Orbit: 507 x 3262 km, 33.4° (Epoch: 16 May)

Event Time Altitude Azimuth Distance (km) Brightness Sun altitude
Rises 23:33:49 0° 226° (SW) 4,901 - -24.6°
Reaches altitude 10° 23:39:37 10° 203° (SSW) 3,243 - -24.8°
Maximum altitude 23:42:54 13° 178° (S) 2,627 - -24.8°
Drops below altitude 10° 23:45:38 10° 151° (SSE) 2,554 - -24.8°
Sets 23:49:07 0° 123° (ESE) 3,122 - -24.9°
